Regional Weather Roundup
Issued by NWS

Home | Current Version | Previous Version | Graphics & Text | Print | Product List | Glossary On
Versions: 1 2 3 4 5 6 7 8 9 10 11 12 13 14 15 16 17 18 19 20 21 22 23 24 25 26 27 28 29 30 31 32 33 34 35 36 37 38 39 40 41 42 43 44 45 46 47 48 49
000
ASUS43 KDMX 280807
RWRIA

WEATHER ROUNDUP FOR IOWA
NATIONAL WEATHER SERVICE DES MOINES IA
200 AM CST FRI NOV 28 2014

NOTE: "FAIR" INDICATES FEW OR NO CLOUDS BELOW 12,000 FEET WITH NO
SIGNIFICANT WEATHER AND/OR OBSTRUCTIONS TO VISIBILITY.

* - THESE STATIONS ARE NOT NWS STATIONS...THUS NOT UNDER NWS
QUALITY CONTROL.  THEY ALSO DO NOT REPORT WEATHER SUCH
AS PRECIPITATION OR FOG.

IAZ001>003-012>014-020>022-031>034-043>046-280900-
   NORTHWEST IOWA

CITY           SKY/WX    TMP DP  RH WIND       PRES   REMARKS
CARROLL *      MOCLDY    16  12  86 SE10      30.05F WCI   3
CHEROKEE *     PTCLDY    16  14  93 SE10      30.01F WCI   3
DENISON *      CLEAR     25  19  80 S14G26    29.99S WCI  13
LE MARS *      CLEAR     19  16  86 SE7       30.00S WCI  10
ORANGE CITY *  CLEAR     21  18  86 S10       29.97F WCI  10
SHELDON *      MOCLDY    16  12  86 S16       29.96F WCI   0
SIOUX CITY     CLEAR     23  17  78 SE6       30.01F WCI  16
SPENCER        MOCLDY    14   8  77 SE16      30.02F WCI  -2
STORM LAKE *   PTCLDY    12   9  85 SE16      30.01F WCI  -4
$$

IAZ055>058-069>071-079>083-090>094-280900-
   SOUTHWEST IOWA

CITY           SKY/WX    TMP DP  RH WIND       PRES   REMARKS
ATLANTIC *     MOCLDY    25  19  80 S13G21    30.07F WCI  13
AUDUBON *      CLEAR     25  18  74 S16       30.03F WCI  12
CLARINDA *     CLEAR     27  23  86 S9        30.12F WCI  17
COUNCIL BLFS * CLEAR     27  23  86 S17       30.02F WCI  14
CRESTON *      CLOUDY    23  21  93 SE16G22   30.12F WCI  10
HARLAN  *      CLEAR     25  21  86 S17       30.06F WCI  11
LAMONI         PTCLDY    23  19  85 SE12      30.16F WCI  12
RED OAK *      CLEAR     27  23  86 S15       30.09F WCI  15
SHENANDOAH *   CLEAR     28  23  80 SE12G17   30.09F WCI  18
$$

IAZ047>049-059>061-072>074-084-280900-
   CENTRAL IOWA

CITY           SKY/WX    TMP DP  RH WIND       PRES   REMARKS
AMES           CLOUDY    14   6  70 SE13      30.15F WCI   0
ANKENY *       CLOUDY    16   9  73 SE12      30.16F WCI   3
CHARITON *     CLOUDY    19  14  79 SE12G18   30.19F WCI   7
DES MOINES     CLOUDY    18  10  71 SE15      30.16F WCI   4
GRINNELL*      MOCLDY    14   7  73 SE13      30.21F WCI   0
KNOXVILLE *    CLOUDY    16   9  73 SE13      30.18F WCI   2
MARSHALLTOWN   MOCLDY    14   1  56 SE18      30.18F WCI  -3
PELLA *        MOCLDY    16   9  73 SE12      30.23F WCI   3
PERRY *          N/A     16  12  86 SE15      30.09F WCI   1
$$

IAZ004>006-015-016-023>025-035-036-280900-
   NORTH CENTRAL IOWA

CITY           SKY/WX    TMP DP  RH WIND       PRES   REMARKS
ALGONA *       MOCLDY    14   5  67 SE22G28   30.06F WCI  -4
CLARION *      MOCLDY    14   3  62 SE20G25   30.12R WCI  -3
ESTHERVILLE    MOCLDY    11   6  81 SE18      30.04F WCI  -7
FORT DODGE *     N/A     14   5  67 SE9       30.09F WCI   2
MASON CITY     CLOUDY    12   3  67 SE17      30.15F WCI  -5
FOREST CITY *  CLOUDY    14   7  73 SE14      30.12F WCI  -1
IOWA FALLS *   CLOUDY    14   3  62 SE9       30.18S WCI   2
$$

IAZ007>011-017>019-026>030-037>042-050>054-066-280900-
   NORTHEAST IOWA

CITY           SKY/WX    TMP DP  RH WIND       PRES   REMARKS
CEDAR RAPIDS   CLOUDY    14   6  70 SE9       30.28F WCI   2
CHARLES CITY * CLOUDY    12   3  67 SE13      30.21S WCI  -3
CLINTON *      MOCLDY    14   5  67 SE3       30.36F
DECORAH *      CLOUDY    12   7  79 S10       30.23F WCI  -1
DUBUQUE        LGT SNOW  12   7  80 S9        30.29F WCI   0
MONTICELLO *   CLOUDY    14   7  73 S10       30.30F WCI   1
OELWEIN *      CLOUDY    14   5  67 SE13      30.23F WCI   0
WATERLOO       CLOUDY    14   4  64 SE12      30.22F WCI   0
$$

IAZ064-065-067-068-078-280900-
   EAST CENTRAL IOWA

CITY           SKY/WX    TMP DP  RH WIND       PRES   REMARKS
DAVENPORT      FLURRIES  15   7  70 SE9       30.33F WCI   3
IOWA CITY      CLOUDY    13   7  77 SE10      30.32F WCI   0
MT. PLEASANT * PTCLDY    12   7  79 SE8       30.31F WCI   1
MUSCATINE *    CLOUDY    16   9  73 SE6       30.34F WCI   7
QUAD CITIES    FLURRIES  15   8  73 SE7       30.34F WCI   5
$$

IAZ062-063-075>077-085>089-095>099-280900-
   SOUTHEAST IOWA

CITY           SKY/WX    TMP DP  RH WIND       PRES   REMARKS
BURLINGTON     PTCLDY    15   7  70 E5        30.33F WCI   8
FAIRFIELD *    CLOUDY    14   5  67 SE10      30.29F WCI   1
FORT MADISON * MOCLDY    18  10  73 E6        30.33F WCI   9
KEOKUK *       PTCLDY    18  10  73 SE6       30.32F WCI   9
OSKALOOSA *      N/A     14   9  79 SE14      30.25F WCI  -1
CENTERVILLE *  CLEAR     18  14  86 SE9       30.23F WCI   6
OTTUMWA        PTCLDY    16   7  67 SE9       30.25F WCI   4
WASHINGTON *   CLOUDY    14  10  85 SE12      30.30F WCI   0
$$

ABBREVIATIONS USED IN REMARKS
   TC - TEMPERATURES IN CELSIUS
  WCI - WIND CHILL INDEX
   HX - HEAT INDEX
  VSB - VISIBILITY
$$




USA.gov is the U.S. government's official web portal to all federal, state and local government web resources and services.